DIAMANT DEB, 2684

Orbit data source: Space-Track

DIAMANT DEB, 2684 is space debris in LEO originally from a launch on Wed, 15 Feb 1967 UTC launched from the Hamma Guira Space Track Range (HGSTR). Debris objects in space refer to the collection of defunct objects orbiting the Earth. Examples of debris include non-operational satellites, rocket bodies, and fragments generated from explosions, collisions, or faulty payload assembly.

Loading next visibility...
Identifier
2684, 1967-014C
Orbit
LEO
Country
Flag of FRFR
Related business
Manufacturer
Unknown
Mission
Spacecraft
Bus & Motor
Unknown
Mass
Unknown
Launch date (UTC)
1967-02-15 (59 years ago)
Launch vehicle
Unknown
Launch site
Hamma Guira Space Track Range (HGSTR)
Object type
Payload
Rocket body
Debris
Shape & HBR
Unknown shape, 0.1 m
Radar Cross Section
Medium (>0.1 m² and <1 m²)

Expand to show TLE details & history
Last TLE update: 11 hours ago

TLE from 11 hours ago
0 DIAMANT DEB
1 02684U 67014C   26175.17504903  .00004837  00000-0  11578-2 0  9994
2 02684  39.9565 347.4015 0435626 102.2755 262.7122 14.09188068941967
Epoch: 2026-06-24T04:12Z
TLE epoch observation values (Epoch: 2026-06-24T04:12:04.236Z)
Latitude
0.00002°
Longitude
12.04784°
Altitude
915.013 km
Speed
7.369 km/s
True Right ascension
23h 09m 36s
True Declination
0° 00' 00"
Sunlit
Object was in daylight at epoch
Visualization orbit readout
Latitude
Unknown
Longitude
Unknown
Altitude
Unknown
Speed
Unknown
Apparent Right ascension
Unknown
Apparent Declination
Unknown
Sunlit
N/A
Visualization observer readout
Local Sidereal Time
02:50:30
Azimuth
Unknown
Elevation
Unknown
Doppler factor
Unknown
Orbital elements
Apogee altitude
1,179.99 km
Perigee altitude
548.975 km
Semi-major axis
7,242.62 km
Eccentricity
0.04356
Inclination
39.9565°
RAAN
347.4015°
Arg. of periapsis
102.2755°
True anomaly
257.80062°
Mean anomaly
262.7122°
Eccentric anomaly
260.25228°
Mean motion
3.52127 °/min
Orbital period
102.24 mins
BSTAR
0.0011578
Loading maneuver chart data...
Computing Atmospheric mass density...
Loading historical data...
Loading historical data...
Loading historical data...
Loading historical data...
Loading historical data...
Loading historical data...
Loading historical data...

Documentation

Showing up to 5 results
|